Weather History for GMFF - December, 2013

Change the Weather History Date:

Tuesday, December 24, 2013

  Actual Average Record
Temperature  
Mean Temperature 52 °F -  
Max Temperature 68 °F 58 °F 74 °F (2012)
Min Temperature 37 °F 38 °F 32 °F (1999)
Degree Days  
Heating Degree Days 12    
Growing Degree Days 2 (Base 50)    
Moisture  
Dew Point 37 °F    
Average Humidity 58    
Maximum Humidity 87    
Minimum Humidity 29    
Precipitation  
Precipitation 0.28 in 0.10 in - ()
Sea Level Pressure  
Sea Level Pressure 30.24 in    
Wind  
Wind Speed 5 mph ()    
Max Wind Speed 9 mph    
Max Gust Speed -    
Visibility 6.0 miles    
Events      
Averages and records for this station are not official NWS values.
T = Trace of Precipitation, MM = Missing Value Source: Averaged Metar Reports

Daily Weather History Graph

Daily Weather History Graph

Search for Another Location

Airport or City:

Trip Planner

Search our weather history database for the weather conditions in past years. The results will help you decide how hot, cold, wet, or windy it might be!

Date:

Astronomy

Dec. 24, 2013 Rise Set
Actual Time 7:22 AM WET 5:16 PM WET
Civil Twilight 6:54 AM WET 5:44 PM WET
Nautical Twilight 6:23 AM WET 6:15 PM WET
Astronomical Twilight 5:53 AM WET 6:46 PM WET
Moon 11:52 PM WET (12/24) 11:26 AM WET (12/24)
Length of Visible Light 10h 49m
Length of Day
9h 53m
Waning Gibbous, 61% of the Moon is Illuminated
Dec 24
Waning Gibbous
Dec 25
Last Quarter
Jan 1
New
Jan 8
First Quarter
Jan 16
Full

Hourly Weather History & Observations

Time (WET) Temp. Windchill Dew Point Humidity Pressure Visibility Wind Dir Wind Speed Gust Speed Precip Events Conditions
12:00 AM 44 °F - 35 °F 62% 30.37 in 6 mi SSW 6.9 mph - -  
12:00 AM 44.6 °F 40.7 °F 35.6 °F 71% 30.30 in - SSW 6.9 mph - N/A   Clear
1:00 AM 42.8 °F 41.1 °F 33.8 °F 70% 30.30 in - SSE 3.5 mph - N/A   Clear
2:00 AM 39.2 °F 37.0 °F 35.6 °F 87% 30.27 in - SSE 3.5 mph - N/A   Clear
3:00 AM 39.2 °F 37.0 °F 33.8 °F 81% 30.24 in - SSE 3.5 mph - N/A   Clear
4:00 AM 37.4 °F 34.9 °F 33.8 °F 87% 30.24 in - ESE 3.5 mph - N/A   Clear
5:00 AM 37.4 °F 33.8 °F 32.0 °F 81% 30.24 in - SSE 4.6 mph - N/A   Clear
6:00 AM 41 °F - 30 °F 55% 30.29 in 6 mi SSE 3.5 mph - -  
6:00 AM 41.0 °F 38.0 °F 30.2 °F 65% 30.24 in - SSE 4.6 mph - N/A   Clear
7:00 AM 37.4 °F 33.8 °F 30.2 °F 75% 30.24 in - South 4.6 mph - N/A   Clear
8:00 AM 39.2 °F 35.0 °F 32.0 °F 75% 30.24 in - South 5.8 mph - N/A   Clear
9:00 AM 50 °F - 36 °F 49% 30.30 in 6 mi South 5.8 mph - -  
9:00 AM 51.8 °F - 37.4 °F 58% 30.27 in - Variable 5.8 mph - N/A   Clear
10:00 AM 59.0 °F - 37.4 °F 45% 30.27 in - NNE 2.3 mph - N/A   Clear
11:00 AM 62.6 °F - 39.2 °F 42% 30.24 in - North - - N/A   Clear
12:00 PM 62 °F - 38 °F 29% 30.23 in 6 mi North 6.9 mph - -   Clear
12:00 PM 62.6 °F - 39.2 °F 42% 30.24 in - North 6.9 mph - N/A   Clear
1:00 PM 64.4 °F - 39.2 °F 40% 30.21 in - NNW 6.9 mph - N/A   Clear
2:00 PM 68.0 °F - 41.0 °F 37% 30.18 in - NNW 8.1 mph - N/A   Clear
3:00 PM 65 °F - 42 °F 32% 30.16 in 6 mi WNW 6.9 mph - -   Clear
3:00 PM 66.2 °F - 42.8 °F 43% 30.18 in - NNW 6.9 mph - N/A   Clear
4:00 PM 62.6 °F - 39.2 °F 42% 30.21 in - NW 6.9 mph - N/A   Clear
5:00 PM 60.8 °F - 39.2 °F 45% 30.21 in - WNW 9.2 mph - N/A   Clear
6:00 PM 54 °F - 39 °F 46% 30.24 in 6 mi WSW 2.3 mph - -   Clear
6:00 PM 51.8 °F - 39.2 °F 62% 30.21 in - West 2.3 mph - N/A   Clear
7:00 PM 50.0 °F - 39.2 °F 66% 30.21 in - WSW 5.8 mph - N/A   Clear
8:00 PM 48.2 °F - 37.4 °F 66% 30.24 in - SSW 6.9 mph - N/A   Clear
9:00 PM 46 °F - 37 °F 63% 30.27 in 6 mi SW 2.3 mph - -   Clear
9:00 PM 46.4 °F - 37.4 °F 71% 30.21 in - Calm Calm - N/A   Clear
10:00 PM 48.2 °F - 37.4 °F 66% 30.21 in - Calm Calm - N/A   Clear
11:00 PM 50.0 °F - 35.6 °F 58% 30.18 in - North - - N/A   Clear